Tracking 28126 objects as of 2-Oct-2023
HD Live streaming from Space Station
objects crossing your sky now

NAVSTAR 61 (USA 199)

Track NAVSTAR 61 (USA 199) now!
NAVSTAR 61 (USA 199) is classified as:


NORAD ID: 32384
Int'l Code: 2007-062A
Perigee: 20,124.3 km
Apogee: 20,255.0 km
Inclination: 55.9 °
Period: 718.0 minutes
Semi major axis: 26560 km
RCS: 2 m2 (large)
Launch date: December 20, 2007
Source: United States (US)
Launch site: AIR FORCE EASTERN TEST RANGE (AFETR)
PRN: 29

The GPS 2R-18 spacecraft is the fifth in a series of eight with enhanced features designed to rejuvenate the GPS constellation
Your satellite tracking list
Your tracking list is empty




NASA's NSSDC Master Catalog

Two Line Element Set (TLE):
1 32384U 07062A   23274.62677181 -.00000060  00000-0  00000-0 0  9998
2 32384  55.8527 313.6618 0024609 151.8084  34.9948  2.00560092115660
Source of the keplerian elements: AFSPC